Flag for Brazil Weather past 2 weeks in Fernando de Noronha, Pernambuco, Brazil

Now
72 °F

Clear.


Feels Like: 69 °F
Forecast: 76 / 78 °F
Wind: 10 mph from South

Location: Natal Aeroporto

Current Time: Aug 22, 2014 at 2:25:31 AM

Latest Report: Aug 22, 2014 at 2:00 AM


Visibility: 10 mi

Pressure: 30.01 "Hg

Humidity: 88%

Dew point: 68 °F

Location of Fernando de NoronhaLocation

Historic Weather in Fernando de Noronha — Graph

°F

Fernando de Noronha temperature yesterday

Maximum temperature yesterday: 84 °F (at 2:00 PM)
Minimum temperature yesterday: 70 °F (at 6:00 AM)
Average temperature yesterday: 76 °F

Past Weeks' High & Low Weather Summary

 TemperatureHumidityPressure
High86 °F (Aug 8, 4:00 PM)100% (Aug 16, 10:00 AM)30.07 "Hg (Aug 16, 10:00 AM)
Low36 °F (Aug 18, 9:00 PM)45% (Aug 12, 12:00 PM)29.92 "Hg (Aug 18, 3:00 PM)
Average76 °F74%30.01 "Hg
* Reported Aug 7 1:00 AM — Aug 22 1:00 AM, Fernando de Noronha, Weather by CustomWeather, © 2014

Note: Actual official high and low records may vary slightly from our data, if they occured in-between our weather recording intervals... More about our weather records

Advertising

Fernando de Noronha weather history for previous 24 hours

 ConditionsComfort  
Time TempWeatherWind HumidityBarometerVisibility
1:00 AM
Aug 22
72 °FPassing clouds.10 mph88%30.01 "HgN/A
12:00 AM73 °FPassing clouds.12 mph83%30.01 "HgN/A
11:00 PM
Aug 21
73 °FClear.10 mph83%30.01 "Hg10 mi
10:00 PM73 °FClear.13 mph83%30.01 "Hg10 mi
9:00 PM73 °FClear.13 mph83%30.01 "Hg10 mi
8:00 PM75 °FPassing clouds.8 mph78%30.01 "HgN/A
7:00 PM75 °FPassing clouds.15 mph78%30.01 "HgN/A
6:00 PM79 °FScattered clouds.22 mph70%29.98 "HgN/A
5:00 PM81 °FBroken clouds.22 mph66%29.98 "HgN/A
4:00 PM82 °FScattered clouds.22 mph62%29.98 "HgN/A
3:00 PM84 °FPartly sunny.20 mph55%29.98 "HgN/A
2:00 PM84 °FScattered clouds.20 mph55%29.98 "HgN/A
1:00 PM82 °FScattered clouds.18 mph58%30.01 "HgN/A
12:00 PM82 °FScattered clouds.16 mph55%30.04 "HgN/A
11:00 AM81 °FPartly sunny.15 mph66%30.04 "HgN/A
10:00 AM81 °FScattered clouds.16 mph62%30.07 "HgN/A
9:00 AM77 °FPassing clouds.14 mph69%30.07 "HgN/A
8:00 AM73 °FPassing clouds.12 mph78%30.04 "HgN/A
7:00 AM70 °FPassing clouds.7 mph88%30.01 "HgN/A
6:00 AM70 °FPassing clouds.8 mph88%30.01 "HgN/A
5:00 AM72 °FPassing clouds.9 mph83%29.98 "HgN/A
4:00 AM72 °FClear.8 mph83%30.01 "Hg10 mi
3:00 AM72 °FClear.8 mph83%30.01 "Hg10 mi
2:00 AM72 °FClear.9 mph83%30.01 "Hg10 mi
Weather by CustomWeather, © 2014

See weather overviewHow to use our weather pages